Wind from 287 at 2 knots gusting 6

Air temperature 3.9° C
Dewpoint -4.6° C

Last reported at 2014-Apr-16 06:47 UTC.
Time now 2014-Apr-16 07:40 UTC

Location: N 61°39' E 024°21'.
View on Google Maps.

See reports from other nearby stations

Tides Stations Pressure Air Temp Water Temp Dewpoint Dewpoint depression Visibility Wind Speed Wind Dir Waves Ship positions

  
sailing weather and tide predictions

DW6455 Orivesi FI weather

date/time (UTC)wind fromknots sea level pressurealtimeterstation pressurevisibilityair tempwater tempwave heightnotes
2014-Apr-16 06:47 287 2 gusting 6 3.9
2014-Apr-16 06:42 311 2 gusting 6 3.9
2014-Apr-16 06:37 300 0 gusting 3 3.3
2014-Apr-16 06:32 300 0 gusting 3 3.3
2014-Apr-16 06:27 300 0 gusting 3 3.3
2014-Apr-16 06:22 300 0 gusting 3 2.8
2014-Apr-16 06:17 299 0 gusting 3 2.8
2014-Apr-16 06:12 287 1 gusting 4 2.8
2014-Apr-16 06:07 302 0 gusting 6 2.8
2014-Apr-16 06:02 340 2 gusting 7 2.2
2014-Apr-16 05:57 348 3 gusting 7 2.2
2014-Apr-16 05:52 330 3 gusting 7 2.2
2014-Apr-16 05:47 344 2 gusting 5 2.2
2014-Apr-16 05:42 339 1 gusting 5 2.2
2014-Apr-16 05:37 346 2 gusting 5 2.2
2014-Apr-16 05:32 005 3 gusting 5 1.7
2014-Apr-16 05:27 333 3 gusting 5 1.7
2014-Apr-16 05:22 330 3 gusting 5 1.1
2014-Apr-16 05:17 306 3 gusting 7 1.1
2014-Apr-16 05:12 333 3 gusting 7 0.6
2014-Apr-16 05:07 338 4 gusting 7 0.6
2014-Apr-16 05:02 325 4 gusting 7 -0.0
2014-Apr-16 04:57 350 4 gusting 7 -0.0
2014-Apr-16 04:52 335 2 gusting 4 -0.6
2014-Apr-16 04:47 329 1 gusting 4 -0.6
2014-Apr-16 04:42 341 1 gusting 4 -1.1
2014-Apr-16 04:37 319 0 gusting 4 -1.7
2014-Apr-16 04:32 342 0 gusting 2 -2.2
2014-Apr-16 04:27 342 0 gusting 2 -2.8
2014-Apr-16 04:17 342 0 gusting 2 -3.3
2014-Apr-16 04:12 342 0 gusting 2 -3.3
2014-Apr-16 04:07 342 0 gusting 2 -3.3
2014-Apr-16 04:02 342 -3.9
2014-Apr-16 03:57 342 -3.9
2014-Apr-16 03:52 342 0 gusting 1 -3.9
2014-Apr-16 03:47 342 0 gusting 1 -3.9
2014-Apr-16 03:42 342 0 gusting 1 -3.9
2014-Apr-16 03:37 342 0 gusting 1 -3.9
2014-Apr-16 03:32 342 0 gusting 1 -3.9
2014-Apr-16 03:27 342 -3.9
2014-Apr-16 03:22 342 0 gusting 3 -3.9
2014-Apr-16 03:17 342 1 gusting 3 -3.9
2014-Apr-16 03:12 342 1 gusting 3 -3.9
2014-Apr-16 03:07 342 1 gusting 3 -3.9
2014-Apr-16 03:02 342 1 gusting 3 -3.3
2014-Apr-16 02:57 342 1 gusting 3 -3.3
2014-Apr-16 02:52 342 1 gusting 3 -3.3
2014-Apr-16 02:47 342 1 gusting 3 -3.9
2014-Apr-16 02:42 342 1 gusting 2 -3.9
2014-Apr-16 02:37 -3.9
2014-Apr-16 02:32 328 1 gusting 3 -3.9
2014-Apr-16 02:27 328 1 gusting 3 -3.9
2014-Apr-16 02:22 328 1 gusting 3 -3.9
2014-Apr-16 02:17 328 0 gusting 3 -3.9
2014-Apr-16 02:12 328 0 gusting 4 -3.9
2014-Apr-16 02:07 328 1 gusting 4 -3.9
2014-Apr-16 02:02 328 2 gusting 4 -3.9
2014-Apr-16 01:57 328 2 gusting 4 -3.9
2014-Apr-16 01:52 328 1 gusting 4 -3.9
2014-Apr-16 01:47 351 1 gusting 4 -3.9
2014-Apr-16 01:42 326 1 gusting 3 -3.9
2014-Apr-16 01:37 326 1 gusting 3 -3.9
2014-Apr-16 01:32 326 1 gusting 3 -3.9
2014-Apr-16 01:27 325 0 gusting 2 -3.3
2014-Apr-16 01:22 325 1 gusting 2 -3.3
2014-Apr-16 01:17 325 1 gusting 2 -3.3
2014-Apr-16 01:12 325 1 gusting 2 -3.3
2014-Apr-16 01:07 325 1 gusting 2 -3.3
2014-Apr-16 01:02 325 1 gusting 2 -3.3
2014-Apr-16 00:57 326 1 gusting 2 -2.8
2014-Apr-16 00:52 325 1 gusting 3 -2.8
2014-Apr-16 00:47 325 1 gusting 3 -2.8
2014-Apr-16 00:42 325 1 gusting 2 -2.8
2014-Apr-16 00:37 325 1 gusting 2 -2.8
2014-Apr-16 00:32 325 1 gusting 2 -2.8
2014-Apr-16 00:27 325 1 gusting 5 -2.8
2014-Apr-16 00:22 -2.2
2014-Apr-16 00:17 325 2 gusting 5 -2.2
2014-Apr-16 00:12 325 1 gusting 3 -2.2
2014-Apr-16 00:07 336 0 gusting 2 -2.2
2014-Apr-16 00:02 335 0 gusting 2 -2.2
2014-Apr-15 23:57 335 0 gusting 3 -1.7
2014-Apr-15 23:52 336 1 gusting 5 -1.7
2014-Apr-15 23:47 336 2 gusting 5 -1.7
2014-Apr-15 23:42 335 2 gusting 6 -1.1
2014-Apr-15 23:37 317 2 gusting 6 -1.1
2014-Apr-15 23:32 313 3 gusting 6 -1.1
2014-Apr-15 23:27 334 3 gusting 5 -1.1
2014-Apr-15 23:22 315 3 gusting 5 -1.1
2014-Apr-15 23:17 325 3 gusting 6 -1.1
2014-Apr-15 23:12 -1.7
2014-Apr-15 23:07 329 3 gusting 6 -1.7
2014-Apr-15 23:02 329 2 gusting 6 -1.7
2014-Apr-15 22:57 319 2 gusting 4 -2.2
2014-Apr-15 22:52 303 2 gusting 4 -2.2
2014-Apr-15 22:47 302 2 gusting 4 -2.2
2014-Apr-15 22:42 327 2 gusting 3 -2.8
2014-Apr-15 22:37 324 2 gusting 4 -2.8
2014-Apr-15 22:32 324 2 gusting 4 -2.8
2014-Apr-15 22:27 323 2 gusting 4 -2.8
2014-Apr-15 22:22 324 2 gusting 4 -2.8
2014-Apr-15 22:17 324 1 gusting 2 -2.8
2014-Apr-15 22:12 324 1 gusting 2 -2.8
2014-Apr-15 22:07 324 0 gusting 3 -2.8
2014-Apr-15 22:02 324 0 gusting 3 -2.8
2014-Apr-15 21:57 324 1 gusting 3 -2.8
2014-Apr-15 21:52 318 1 gusting 4 -2.2
2014-Apr-15 21:47 340 2 gusting 4 -2.2
2014-Apr-15 21:42 340 2 gusting 6 -2.8
2014-Apr-15 21:37 323 1 gusting 6 -2.8
2014-Apr-15 21:32 325 2 gusting 3 -2.8
2014-Apr-15 21:27 328 1 gusting 3 -2.8
2014-Apr-15 21:22 328 0 gusting 1 -2.2
2014-Apr-15 21:17 328 -2.2
2014-Apr-15 21:12 328 -2.2
2014-Apr-15 21:07 328 0 gusting 2 -2.2
2014-Apr-15 21:02 328 1 gusting 3 -2.2
2014-Apr-15 20:57 327 1 gusting 3 -2.2
2014-Apr-15 20:52 328 1 gusting 3 -1.7
2014-Apr-15 20:47 -1.7
2014-Apr-15 20:42 328 0 gusting 1 -1.7
2014-Apr-15 20:37 328 0 gusting 1 -1.7
2014-Apr-15 20:32 328 0 gusting 3 -1.7
2014-Apr-15 20:27 328 0 gusting 3 -1.1
2014-Apr-15 20:22 328 1 gusting 3 -1.1
2014-Apr-15 20:17 328 1 gusting 3 -1.1
2014-Apr-15 20:12 -1.1
2014-Apr-15 20:07 328 1 gusting 3 -0.6
2014-Apr-15 20:02 328 1 gusting 4 -0.6
2014-Apr-15 19:57 328 1 gusting 4 -0.6
2014-Apr-15 19:52 328 1 gusting 4 -0.6
2014-Apr-15 19:47 328 2 gusting 4 -0.0
2014-Apr-15 19:42 328 2 gusting 4 -0.0
2014-Apr-15 19:37 328 3 gusting 4 0.6
2014-Apr-15 19:32 327 2 gusting 4 0.6
2014-Apr-15 19:27 0.6
2014-Apr-15 19:22 328 1 gusting 3 0.6
2014-Apr-15 19:17 328 1 gusting 3 1.1
2014-Apr-15 19:12 328 1 gusting 3 1.1
2014-Apr-15 19:07 328 1 gusting 4 1.7
2014-Apr-15 19:02 328 1 gusting 4 1.7
2014-Apr-15 18:57 328 1 gusting 4 1.7
2014-Apr-15 18:52 328 2 gusting 5 1.7
2014-Apr-15 18:47 300 3 gusting 5 1.7
2014-Apr-15 18:42 331 3 gusting 6 2.2
2014-Apr-15 18:37 335 3 gusting 6 2.2
2014-Apr-15 18:32 336 3 gusting 6 2.2
2014-Apr-15 18:27 348 3 gusting 5 2.8
2014-Apr-15 18:22 2.8
2014-Apr-15 18:17 333 4 gusting 8 2.8
2014-Apr-15 18:12 336 4 gusting 9 3.3
2014-Apr-15 18:07 348 5 gusting 9 3.3
2014-Apr-15 18:02 338 6 gusting 9 3.3
2014-Apr-15 17:57 337 5 gusting 10 3.3
2014-Apr-15 17:52 332 6 gusting 10 3.9
2014-Apr-15 17:47 346 6 gusting 10 3.9
2014-Apr-15 17:42 327 5 gusting 9 3.9
2014-Apr-15 17:37 340 5 gusting 10 3.9
2014-Apr-15 17:32 4.4
2014-Apr-15 17:27 331 6 gusting 12 4.4
2014-Apr-15 17:22 313 7 gusting 15 4.4
2014-Apr-15 17:17 328 6 gusting 15 4.4
2014-Apr-15 17:12 342 7 gusting 15 5.0
2014-Apr-15 17:07 5.0
2014-Apr-15 17:02 331 8 gusting 19 5.0
2014-Apr-15 16:57 320 8 gusting 19 5.6
2014-Apr-15 16:52 342 9 gusting 19 5.6
2014-Apr-15 16:47 338 10 gusting 19 5.6
2014-Apr-15 16:42 346 7 gusting 17 5.6
2014-Apr-15 16:37 329 7 gusting 14 5.6
2014-Apr-15 16:32 345 8 gusting 14 6.1
2014-Apr-15 16:27 326 8 gusting 13 6.1
2014-Apr-15 16:22 349 7 gusting 16 6.1
2014-Apr-15 16:17 346 7 gusting 18 6.1
2014-Apr-15 16:12 328 10 gusting 18 6.1
2014-Apr-15 16:07 334 10 gusting 18 6.1
2014-Apr-15 16:02 355 10 gusting 19 6.1
2014-Apr-15 15:57 334 11 gusting 19 6.1
2014-Apr-15 15:52 333 10 gusting 20 6.1
2014-Apr-15 15:47 355 11 gusting 20 6.1
2014-Apr-15 15:42 339 12 gusting 20 6.1
2014-Apr-15 15:37 348 11 gusting 20 6.7
2014-Apr-15 15:32 327 9 gusting 17 6.7
2014-Apr-15 15:27 355 9 gusting 19 6.7
2014-Apr-15 15:22 312 9 gusting 19 6.7
2014-Apr-15 15:17 325 10 gusting 18 6.7
2014-Apr-15 15:12 346 8 gusting 18 6.7
2014-Apr-15 15:07 005 8 gusting 16 6.1
2014-Apr-15 15:02 332 9 gusting 16 6.1
2014-Apr-15 14:57 355 8 gusting 17 6.7
2014-Apr-15 14:47 323 9 gusting 17 6.7
2014-Apr-15 14:42 039 9 gusting 16 6.7
2014-Apr-15 14:37 355 8 gusting 16 6.1
2014-Apr-15 14:32 341 7 gusting 14 6.1
2014-Apr-15 14:27 016 7 gusting 17 6.1
2014-Apr-15 14:22 010 9 gusting 17 5.6
2014-Apr-15 14:17 355 10 gusting 16 6.1
2014-Apr-15 14:12 6.1
2014-Apr-15 14:07 338 9 gusting 15 6.1
2014-Apr-15 14:02 327 9 gusting 15 6.1
2014-Apr-15 13:57 5.6
2014-Apr-15 13:52 5.6
2014-Apr-15 13:47 5.6
2014-Apr-15 13:42 355 7 gusting 18 5.6
2014-Apr-15 13:37 346 8 gusting 18 5.6
2014-Apr-15 13:32 342 9 gusting 18 5.6
2014-Apr-15 13:27 346 7 gusting 14 5.6
2014-Apr-15 13:22 345 8 gusting 15 5.6
2014-Apr-15 13:17 005 9 gusting 15 5.6
2014-Apr-15 13:12 329 8 gusting 17 5.6
2014-Apr-15 13:07 331 10 gusting 17 6.1
2014-Apr-15 13:02 319 10 gusting 17 6.1
2014-Apr-15 12:57 6.1
2014-Apr-15 12:52 343 9 gusting 18 6.1
2014-Apr-15 12:47 338 10 gusting 18 6.1
2014-Apr-15 12:42 6.1
2014-Apr-15 12:37 332 9 gusting 20 5.6
2014-Apr-15 12:32 331 12 gusting 20 5.6
2014-Apr-15 12:27 338 11 gusting 20 6.1
2014-Apr-15 12:22 005 9 gusting 18 6.1
2014-Apr-15 12:17 313 9 gusting 18 6.7
2014-Apr-15 12:12 012 10 gusting 18 6.1
2014-Apr-15 12:07 334 9 gusting 15 6.1
2014-Apr-15 12:02 323 9 gusting 15 6.7
2014-Apr-15 11:57 355 9 gusting 17 6.7
2014-Apr-15 11:52 333 10 gusting 17 6.7
2014-Apr-15 11:47 322 9 gusting 16 6.7
2014-Apr-15 11:42 005 8 gusting 14 6.7
2014-Apr-15 11:37 299 8 gusting 14 6.1
2014-Apr-15 11:32 318 8 gusting 14 6.1
2014-Apr-15 11:27 335 6 gusting 14 6.1
2014-Apr-15 11:22 296 6 gusting 14 6.1
2014-Apr-15 11:17 328 9 gusting 14 5.6
2014-Apr-15 11:12 339 8 gusting 14 5.6
2014-Apr-15 11:07 333 8 gusting 15 6.1
2014-Apr-15 11:02 355 9 gusting 15 6.1
2014-Apr-15 10:57 325 7 gusting 15 6.1
2014-Apr-15 10:52 009 6 gusting 13 6.7
2014-Apr-15 10:47 325 6 gusting 14 6.7
2014-Apr-15 10:42 6.1
2014-Apr-15 10:37 022 7 gusting 14 6.1
2014-Apr-15 10:32 349 8 gusting 15 6.1
2014-Apr-15 10:27 333 9 gusting 17 6.1
2014-Apr-15 10:22 327 10 gusting 17 6.1
2014-Apr-15 10:17 331 9 gusting 15 6.7
2014-Apr-15 10:12 005 8 gusting 15 6.7
2014-Apr-15 10:07 348 8 gusting 15 6.7
2014-Apr-15 10:02 346 8 gusting 16 6.7
2014-Apr-15 09:57 319 8 gusting 16 6.7
2014-Apr-15 09:52 323 9 gusting 16 6.7
2014-Apr-15 09:47 311 9 gusting 15 7.2
2014-Apr-15 09:42 334 8 gusting 17 7.8
2014-Apr-15 09:37 355 8 gusting 17 7.8
2014-Apr-15 09:32 022 6 gusting 10 7.8
2014-Apr-15 09:27 7.2
2014-Apr-15 09:22 017 5 gusting 12 6.7
2014-Apr-15 09:17 011 6 gusting 12 6.7
2014-Apr-15 09:12 346 6 gusting 12 6.1
2014-Apr-15 09:07 028 6 gusting 12 6.1
2014-Apr-15 09:02 331 6 gusting 12 6.1
2014-Apr-15 08:57 330 6 gusting 13 6.1
2014-Apr-15 08:52 030 6 gusting 13 6.1
2014-Apr-15 08:47 334 7 gusting 13 5.6
2014-Apr-15 08:42 015 8 gusting 13 6.1
2014-Apr-15 08:37 022 7 gusting 13 6.1
2014-Apr-15 08:32 005 7 gusting 13 6.1
2014-Apr-15 08:27 072 6 gusting 13 6.1
2014-Apr-15 08:22 355 6 gusting 13 6.1
2014-Apr-15 08:17 331 7 gusting 13 6.1
2014-Apr-15 08:12 018 7 gusting 13 6.1
2014-Apr-15 08:07 019 6 gusting 13 6.1
2014-Apr-15 08:02 012 6 gusting 13 5.6
2014-Apr-15 07:57 026 6 gusting 13 5.6
2014-Apr-15 07:52 5.6
2014-Apr-15 07:47 351 6 gusting 12 5.6
2014-Apr-15 07:42 345 6 gusting 12 5.6
2014-Apr-15 07:37 005 5 gusting 11 5.6
2014-Apr-15 07:32 016 6 gusting 11 5.0
2014-Apr-15 07:27 5.0
2014-Apr-15 07:22 338 5 gusting 9 5.0
2014-Apr-15 07:17 355 5 gusting 9 5.0
2014-Apr-15 07:12 4.4
2014-Apr-15 07:07 323 5 gusting 9 4.4
2014-Apr-15 07:02 348 5 gusting 9 4.4
2014-Apr-15 06:57 013 5 gusting 9 4.4
2014-Apr-15 06:52 342 4 gusting 11 4.4
2014-Apr-15 06:47 4.4
2014-Apr-15 06:42 325 5 gusting 11 5.0
2014-Apr-15 06:37 342 5 gusting 9 5.0
2014-Apr-15 06:32 333 4 gusting 9 5.0
2014-Apr-15 06:27 327 4 gusting 9 5.0
2014-Apr-15 06:22 016 5 gusting 9 4.4
2014-Apr-15 06:17 322 5 gusting 9 4.4
2014-Apr-15 06:12 343 4 gusting 9 4.4
2014-Apr-15 06:07 327 4 gusting 9 4.4
2014-Apr-15 06:02 331 4 gusting 8 3.9
2014-Apr-15 05:57 338 4 gusting 8 3.9
2014-Apr-15 05:52 333 5 gusting 9 3.9
2014-Apr-15 05:47 336 4 gusting 9 3.9
2014-Apr-15 05:42 334 4 gusting 8 3.9
2014-Apr-15 05:37 342 4 gusting 8 3.3
2014-Apr-15 05:32 345 4 gusting 8 3.3
2014-Apr-15 05:27 321 3 gusting 6 3.3
2014-Apr-15 05:22 332 4 gusting 6 3.3
2014-Apr-15 05:17 355 3 gusting 6 3.3
2014-Apr-15 05:12 338 2 gusting 7 2.8
2014-Apr-15 05:07 342 3 gusting 7 2.8
2014-Apr-15 05:02 329 3 gusting 7 2.8
2014-Apr-15 04:57 340 2 gusting 7 2.8
2014-Apr-15 04:52 2.8
2014-Apr-15 04:47 322 2 gusting 6 2.8
2014-Apr-15 04:42 342 2 gusting 5 2.8
2014-Apr-15 04:37 331 2 gusting 5 2.8
2014-Apr-15 04:32 333 2 gusting 5 2.2
2014-Apr-15 04:27 334 2 gusting 6 2.2
2014-Apr-15 04:22 327 1 gusting 6 2.2
2014-Apr-15 04:17 320 2 gusting 6 2.2
2014-Apr-15 04:12 315 2 gusting 6 2.2
2014-Apr-15 04:07 325 2 gusting 6 2.2
2014-Apr-15 04:02 2.2
2014-Apr-15 03:57 344 3 gusting 6 2.2
2014-Apr-15 03:52 336 3 gusting 9 2.2
2014-Apr-15 03:47 2.2
2014-Apr-15 03:42 342 4 gusting 9 2.2
2014-Apr-15 03:37 346 5 gusting 8 2.2
2014-Apr-15 03:32 009 5 gusting 8 2.2
2014-Apr-15 03:27 323 4 gusting 8 2.2
2014-Apr-15 03:22 340 4 gusting 8 2.2
2014-Apr-15 03:17 335 5 gusting 8 2.2
2014-Apr-15 03:12 331 5 gusting 8 2.2
2014-Apr-15 03:07 331 4 gusting 8 2.2
2014-Apr-15 03:02 2.2
2014-Apr-15 02:57 331 4 gusting 7 2.2
2014-Apr-15 02:52 355 4 gusting 7 2.2
2014-Apr-15 02:47 355 4 gusting 7 2.2
2014-Apr-15 02:42 336 3 gusting 7 2.2
2014-Apr-15 02:37 344 3 gusting 7 2.2
2014-Apr-15 02:32 339 3 gusting 6 2.2
2014-Apr-15 02:27 340 3 gusting 6 2.2
2014-Apr-15 02:22 337 3 gusting 6 2.2
2014-Apr-15 02:17 334 3 gusting 6 2.2
2014-Apr-15 02:12 339 4 gusting 7 2.2
2014-Apr-15 02:07 330 4 gusting 7 2.2
2014-Apr-15 02:02 344 3 gusting 7 2.2
2014-Apr-15 01:57 333 4 gusting 7 2.2
2014-Apr-15 01:52 010 3 gusting 7 2.2
2014-Apr-15 01:47 343 3 gusting 7 2.2
2014-Apr-15 01:42 336 3 gusting 8 1.7
2014-Apr-15 01:37 336 4 gusting 8 1.7
2014-Apr-15 01:32 343 4 gusting 10 1.7
2014-Apr-15 01:27 346 4 gusting 10 1.7
2014-Apr-15 01:22 355 5 gusting 10 2.2
2014-Apr-15 01:12 341 5 gusting 7 1.7
2014-Apr-15 01:07 342 4 gusting 7 1.7
2014-Apr-15 01:02 350 4 gusting 7 1.7
2014-Apr-15 00:57 1.7
2014-Apr-15 00:52 333 3 gusting 6 1.7
2014-Apr-15 00:47 344 3 gusting 6 1.7
2014-Apr-15 00:42 355 3 gusting 6 1.7
2014-Apr-15 00:37 339 3 gusting 6 2.2
2014-Apr-15 00:32 337 3 gusting 6 2.2
2014-Apr-15 00:27 346 3 gusting 5 2.2
2014-Apr-15 00:22 345 3 gusting 5 2.2
2014-Apr-15 00:17 335 2 gusting 5 2.2
2014-Apr-15 00:12 2.2
2014-Apr-15 00:07 2.2
2014-Apr-15 00:02 343 2 gusting 5 2.8
2014-Apr-14 23:57 344 3 gusting 5 2.8
2014-Apr-14 23:52 343 3 gusting 5 2.8
2014-Apr-14 23:47 332 3 gusting 5 2.2
2014-Apr-14 23:42 336 3 gusting 5 2.2
2014-Apr-14 23:37 342 3 gusting 5 2.2
2014-Apr-14 23:32 331 3 gusting 4 2.2
2014-Apr-14 23:27 350 2 gusting 3 2.2
2014-Apr-14 23:22 333 1 gusting 3 2.2
2014-Apr-14 23:17 333 1 gusting 3 2.2
2014-Apr-14 23:12 333 1 gusting 3 2.8
2014-Apr-14 23:07 323 1 gusting 3 2.8
2014-Apr-14 23:02 323 1 gusting 4 2.8
2014-Apr-14 22:57 323 1 gusting 4 2.8
2014-Apr-14 22:52 2.8
2014-Apr-14 22:47 321 0 gusting 4 2.8
2014-Apr-14 22:42 285 0 gusting 4 2.8
2014-Apr-14 22:37 034 0 gusting 2 2.8
2014-Apr-14 22:32 034 0 gusting 2 2.8
2014-Apr-14 22:27 034 0 gusting 2 2.8
2014-Apr-14 22:22 034 2.8
2014-Apr-14 22:17 034 2.8
2014-Apr-14 22:12 034 2.8
2014-Apr-14 22:07 034 3.3
2014-Apr-14 22:02 034 3.3
2014-Apr-14 21:57 034 3.3
2014-Apr-14 21:52 034 3.3
2014-Apr-14 21:47 033 3.3
2014-Apr-14 21:42 034 3.3
2014-Apr-14 21:37 034 3.3
2014-Apr-14 21:32 034 3.3
2014-Apr-14 21:27 034 3.3
2014-Apr-14 21:22 034 3.3
2014-Apr-14 21:17 034 0 gusting 0 3.3
2014-Apr-14 21:12 034 0 gusting 0 3.3
2014-Apr-14 21:07 034 3.3
2014-Apr-14 21:02 034 3.3
2014-Apr-14 20:57 033 0 gusting 1 3.3
2014-Apr-14 20:52 034 0 gusting 2 3.3
2014-Apr-14 20:47 033 0 gusting 2 3.3
2014-Apr-14 20:42 034 0 gusting 2 3.3
2014-Apr-14 20:37 034 0 gusting 1 3.3
2014-Apr-14 20:32 034 3.3
2014-Apr-14 20:27 034 3.3
2014-Apr-14 20:22 034 0 gusting 3 3.3
2014-Apr-14 20:17 034 0 gusting 3 3.3
2014-Apr-14 20:12 034 1 gusting 3 3.3
2014-Apr-14 20:07 034 0 gusting 2 3.3
2014-Apr-14 20:02 034 3.3
2014-Apr-14 19:57 034 3.3
2014-Apr-14 19:52 034 3.3
2014-Apr-14 19:47 034 3.3
2014-Apr-14 19:42 034 3.3
2014-Apr-14 19:37 034 3.3
2014-Apr-14 19:32 034 3.3
2014-Apr-14 19:27 034 0 gusting 3 3.3
2014-Apr-14 19:22 034 1 gusting 6 3.3
2014-Apr-14 19:17 034 2 gusting 6 3.3
2014-Apr-14 19:12 034 2 gusting 6 3.3
2014-Apr-14 19:07 355 2 gusting 3 3.3
2014-Apr-14 19:02 279 1 gusting 2 3.3
2014-Apr-14 18:57 265 0 gusting 1 3.3
2014-Apr-14 18:52 265 3.3
2014-Apr-14 18:47 265 0 gusting 1 3.9
2014-Apr-14 18:42 265 0 gusting 1 3.9
2014-Apr-14 18:37 266 3.9
2014-Apr-14 18:32 265 3.9
2014-Apr-14 18:27 265 0 gusting 1 4.4
2014-Apr-14 18:22 265 0 gusting 1 4.4
2014-Apr-14 18:17 265 0 gusting 1 4.4
2014-Apr-14 18:12 265 0 gusting 1 5.0
2014-Apr-14 18:07 266 5.6
2014-Apr-14 18:02 266 5.6
2014-Apr-14 17:57 266 5.6
2014-Apr-14 17:52 265 5.6
2014-Apr-14 17:47 265 6.1
2014-Apr-14 17:42 265 6.1
2014-Apr-14 17:37 265 6.1
2014-Apr-14 17:32 265 6.1
2014-Apr-14 17:27 266 6.7
2014-Apr-14 17:22 265 6.7
2014-Apr-14 17:17 265 6.7
2014-Apr-14 17:12 265 6.7
2014-Apr-14 17:07 266 7.2
2014-Apr-14 17:02 265 7.2
2014-Apr-14 16:57 265 7.2
2014-Apr-14 16:52 265 7.2
2014-Apr-14 16:47 265 7.8
2014-Apr-14 16:42 265 0 gusting 2 7.8
2014-Apr-14 16:37 266 7.8
2014-Apr-14 16:32 266 8.3
2014-Apr-14 16:27 265 0 gusting 5 8.3
2014-Apr-14 16:22 265 1 gusting 5 8.3
2014-Apr-14 16:17 261 1 gusting 3 8.3
2014-Apr-14 16:12 302 1 gusting 3 8.3
2014-Apr-14 16:07 302 0 gusting 5 7.8
2014-Apr-14 16:02 294 1 gusting 5 7.8
2014-Apr-14 15:57 294 1 gusting 5 7.8
2014-Apr-14 15:52 311 1 gusting 4 7.8
2014-Apr-14 15:47 312 1 gusting 5 7.8
2014-Apr-14 15:42 321 1 gusting 5 7.8
2014-Apr-14 15:37 296 1 gusting 3 7.8
2014-Apr-14 15:32 309 7.8
2014-Apr-14 15:27 309 7.2
2014-Apr-14 15:22 309 7.8
2014-Apr-14 15:17 309 7.8
2014-Apr-14 15:12 309 7.8
2014-Apr-14 15:07 309 0 gusting 4 7.8
2014-Apr-14 15:02 309 1 gusting 6 7.8
2014-Apr-14 14:57 313 1 gusting 6 7.8
2014-Apr-14 14:52 284 1 gusting 4 7.8
2014-Apr-14 14:47 279 7.8
2014-Apr-14 14:42 036 7.8
2014-Apr-14 14:37 036 0 gusting 4 7.8
2014-Apr-14 14:32 037 1 gusting 4 7.8
2014-Apr-14 14:27 036 2 gusting 5 7.8
2014-Apr-14 14:22 010 2 gusting 6 7.8
2014-Apr-14 14:17 7.8
2014-Apr-14 14:12 329 3 gusting 8 7.8
2014-Apr-14 14:07 325 2 gusting 8 7.8
2014-Apr-14 14:02 287 1 gusting 6 7.8
2014-Apr-14 13:57 217 1 gusting 3 7.8
2014-Apr-14 13:52 217 0 gusting 3 7.8
2014-Apr-14 13:47 284 7.8
2014-Apr-14 13:42 284 7.8
2014-Apr-14 13:37 285 7.8
2014-Apr-14 13:32 284 7.8
2014-Apr-14 13:27 284 7.8
2014-Apr-14 13:22 285 7.8
2014-Apr-14 13:17 7.8
2014-Apr-14 13:12 284 0 gusting 2 7.8
2014-Apr-14 13:07 284 0 gusting 2 7.8
2014-Apr-14 13:02 284 7.8
2014-Apr-14 12:57 284 0 gusting 3 7.8
2014-Apr-14 12:52 7.8
2014-Apr-14 12:47 341 0 gusting 3 7.8
2014-Apr-14 12:42 221 8.3
2014-Apr-14 12:37 221 8.3
2014-Apr-14 12:32 221 8.3
2014-Apr-14 12:27 221 0 gusting 2 7.8
2014-Apr-14 12:22 221 7.8
2014-Apr-14 12:17 221 7.8
2014-Apr-14 12:12 208 7.2
2014-Apr-14 12:07 208 7.2
2014-Apr-14 12:02 209 7.2
2014-Apr-14 11:57 209 6.7
2014-Apr-14 11:52 209 0 gusting 2 6.7
2014-Apr-14 11:47 314 0 gusting 2 6.7
2014-Apr-14 11:42 314 0 gusting 2 6.7
2014-Apr-14 11:37 314 0 gusting 3 6.7
2014-Apr-14 11:32 314 0 gusting 3 7.2
2014-Apr-14 11:27 314 0 gusting 3 7.2
2014-Apr-14 11:22 314 0 gusting 4 7.8
2014-Apr-14 11:17 227 0 gusting 4 7.8
2014-Apr-14 11:12 227 0 gusting 6 7.8
2014-Apr-14 11:07 225 1 gusting 6 8.3
2014-Apr-14 11:02 253 2 gusting 6 8.3
2014-Apr-14 10:57 203 2 gusting 5 8.3
2014-Apr-14 10:52 199 2 gusting 5 8.3
2014-Apr-14 10:47 211 1 gusting 5 8.3
2014-Apr-14 10:42 201 1 gusting 6 7.8
2014-Apr-14 10:37 200 2 gusting 6 8.3
2014-Apr-14 10:32 178 3 gusting 6 8.3
2014-Apr-14 10:27 194 2 gusting 6 8.3
2014-Apr-14 10:22 184 2 gusting 6 8.3
2014-Apr-14 10:17 199 2 gusting 6 8.3
2014-Apr-14 10:12 211 2 gusting 6 8.3
2014-Apr-14 10:07 202 2 gusting 5 8.3
2014-Apr-14 10:02 166 2 gusting 5 8.3
2014-Apr-14 09:57 169 2 gusting 5 8.3
2014-Apr-14 09:52 170 1 gusting 6 8.3
2014-Apr-14 09:47 163 1 gusting 6 8.3
2014-Apr-14 09:42 163 2 gusting 6 8.3
2014-Apr-14 09:37 170 2 gusting 6 8.3
2014-Apr-14 09:32 143 2 gusting 6 8.3
2014-Apr-14 09:27 225 2 gusting 6 7.8
2014-Apr-14 09:22 204 2 gusting 6 7.8
2014-Apr-14 09:17 205 3 gusting 6 7.8
2014-Apr-14 09:12 183 2 gusting 6 7.2
2014-Apr-14 09:07 196 2 gusting 9 7.2
2014-Apr-14 09:02 221 3 gusting 9 7.2
2014-Apr-14 08:57 208 3 gusting 9 7.2
2014-Apr-14 08:52 227 3 gusting 7 7.2
2014-Apr-14 08:47 184 2 gusting 6 6.7
2014-Apr-14 08:42 155 2 gusting 6 6.7
2014-Apr-14 08:37 241 2 gusting 8 6.7
2014-Apr-14 08:32 200 3 gusting 8 6.7
2014-Apr-14 08:27 189 3 gusting 8 6.7
2014-Apr-14 08:22 190 3 gusting 10 6.7
2014-Apr-14 08:17 196 3 gusting 10 6.7
2014-Apr-14 08:12 160 2 gusting 10 6.7
2014-Apr-14 08:07 137 3 gusting 9 6.7
2014-Apr-14 08:02 154 3 gusting 8 6.7
2014-Apr-14 07:57 198 2 gusting 8 6.7
2014-Apr-14 07:52 176 2 gusting 8 6.7
2014-Apr-14 07:47 185 2 gusting 6 6.7
2014-Apr-14 07:42 140 1 gusting 5 6.7
2014-Apr-14 07:37 188 1 gusting 5 6.1
2014-Apr-14 07:32 189 1 gusting 6 6.1
2014-Apr-14 07:27 158 2 gusting 6 6.1
2014-Apr-14 07:22 181 3 gusting 6 6.1
2014-Apr-14 07:17 203 3 gusting 6 6.1
2014-Apr-14 07:12 194 2 gusting 6 5.6
2014-Apr-14 07:07 229 2 gusting 6 5.6
2014-Apr-14 07:02 203 2 gusting 6 5.6